Weather in Colva

India     15°16′44″N   73°55′21″E
temp.,
°C
wind,
m/s
gust,
m/s
humid.,
%
clouds,
%
prec.,
mm/h
press.,
hPa
HPBL,
m
17 september, fri
fri1723:30+25sw0188100 1.1 100815
02:30+24s118960 0.4 100718
05:30+24se119278 0.6 100721
08:30+26se128378 0.1 1009239
11:30+29sw346836 0.3 10091103
14:30+29sw446623 0.3 10061153
17:30+27sw237658 0.4 1006556
20:30+25s1287100 0.4 100925
18 september, sat
sat1823:30+24se12908 0.5 101026
02:30+24ese1192100 0.1 100827
05:30+23ese1292100 0.1 100833
08:30+26se1283100 0.0 1010286
11:30+29sw336859 0.2 10101100
14:30+29wsw436948 0.2 10071085
17:30+27w348046 0.6 1008483
20:30+25ssw0089100 0.4 101011
19 september, sun
sun1923:30+24ese119285 0.5 101013
02:30+24e119497 0.1 100821
05:30+23ene1196100 0.1 100927
08:30+26ne1186100 0.0 1012253
11:30+29w2268100 0.0 10111117
14:30+29w3369100 0.1 1009996
17:30+27wnw2483100 0.2 1009356
20:30+25nnw1189100 0.5 101122
20 september, mon
mon2023:30+25n1192100 0.5 101142
02:30+24ne1193100 0.1 100933
05:30+24e1194100 0.1 100927
08:30+26ne0084100 0.0 1011254
11:30+29wnw2368100 0.1 10101065
14:30+28w3475100 0.2 1008689
17:30+27w248498 1.0 1008423
20:30+25w119092 1.0 101037
21 september, tue
tue2123:30+25wsw1190100 1.9 101049
02:30+24w119085 1.1 100831
05:30+24ssw119199 1.4 100946
08:30+25ssw118794 0.1 1010167
11:30+28w237230 0.4 1010907
14:30+27w3481100 2.3 1008620
17:30+25wnw128987 4.6 100856
20:30+24nw1290100 1.3 101057